661  
ASUS43 KFGF 291631  
RWRFGF  
PRAIRIE TO PINES WEATHER ROUNDUP  
NATIONAL WEATHER SERVICE EASTERN NORTH DAKOTA/GRAND FORKS ND  
1100 AM CDT MON MAY 29 2023  
 
**SATELLITE DATA USED TO AUGMENT SKY COVER AT AUTOMATED STATIONS**  
***** WEATHER ACROSS EASTERN NORTH DAKOTA *****  
 
CITY SKY/WX TMP DP RH WIND PRES REMARKS
 
GRAND FORKS FAIR 80 54 40 S20G29 29.77F  
GRAND FRKS AFB FAIR 79 54 41 S14 29.75F  
GRAND FRKS NWS N/A 80 55 42 S9 29.72F  
DEVILS LAKE FAIR 69 58 67 S12 29.77S  
FARGO FAIR 81 53 37 S17G26 29.81F  
WAHPETON ARPT LGT RAIN 72 59 64 SW18G26 29.82F  

 
 
***** WEATHER ACROSS CENTRAL AND WESTERN NORTH DAKOTA *****  
 
CITY SKY/WX TMP DP RH WIND PRES REMARKS
 
BISMARCK FAIR 73 62 68 SW7 29.78F  
MINOT FAIR 70 60 70 W3 29.74R  
JAMESTOWN CLOUDY 69 59 70 S10 29.79S  
MINOT AFB PTSUNNY 67 60 79 W3 29.72R  
GARRISON N/A 72 57 59 SW9 29.75S  
WILLISTON NOT AVBL  
DICKINSON FAIR 72 58 61 VRB3 29.77F  
HETTINGER FAIR 73 53 49 VRB5 29.82S  

 
 
***** OTHER AIRPORT OBSERVATIONS IN OUR AREA *****  
 
CITY SKY/WX TMP DP RH WIND PRES REMARKS
 
WALHALLA FAIR 75 54 46 SE13 29.73F  
GRAFTON AIRPOR FAIR 79 54 41 S17G24 29.76F  
VALLEY CITY AR PTSUNNY 68 63 83 S12 29.81S  
CANDO FAIR 72 64 78 S13G18 29.76F  
CAVALIER APRT FAIR 81 55 41 S16 29.73F  
GWINNER MOSUNNY 77 57 50 S16 29.81F  
SHEYENNE NWR N/A 68 61 78 S10 29.95S  
ROLLA FAIR 70 63 78 S7G13 29.74F  
***** THE ABOVE OBSERVATIONS ARE NON NWS ARE NOT QUALITY  
CONTROLLED AND MAY MIS-REPORT RAIN FOR SNOW...  

 
 
***** WEATHER ACROSS NORTHERN MINNESOTA *****  
 
CITY SKY/WX TMP DP RH WIND PRES REMARKS
 
FLAG ISLAND FAIR 64 52 63 S10 29.86F  
WARROAD FAIR 77 61 57 SE9 29.83F  
ROSEAU FAIR 81 52 36 S12 29.81F  
HALLOCK FAIR 82 52 34 S20G29 29.75F  
THF RVR FALLS FAIR 80 56 43 S21 29.83F  
BAUDETTE FAIR 77 53 43 SE13 29.87F  
WASKISH FAIR 77 52 41 CALM 29.88F  
CROOKSTON FAIR 82 52 34 S22 29.78F  
STEPHEN NDAWN N/A 82 54 36 MISG N/A  
GREENBUSH NDAW N/A 81 55 41 MISG N/A  

 
***** WEATHER ACROSS CENTRAL AND WEST MINNESOTA *****  
 
CITY SKY/WX TMP DP RH WIND PRES REMARKS
 
FOSSTON N/A N/A N/A N/A MISG N/A  
BEMIDJI FAIR 74 52 46 S12 29.89F  
PARK RAPIDS FAIR 77 50 38 S13 29.90F  
ELBOW LAKE FAIR 79 56 45 S23G29 29.88S  
WADENA FAIR 81 46 30 S15G22 29.89F  
DETROIT LAKES FAIR 79 54 41 SE16 29.85F  
MOORHEAD FAIR 79 54 41 S21 29.82F  
FERGUS FALLS FAIR 79 55 44 S18G26 29.85F  
MORRIS MN FAIR 70 55 60 S17 29.89S  
STAPLES FAIR 79 46 31 S9G16 29.91F  

 
***** WEATHER ELSEWHERE ACROSS MINNESOTA *****  
 
CITY SKY/WX TMP DP RH WIND PRES REMARKS
 
DULUTH FAIR 63 42 46 SE9 30.01F  
INTRNTL FALLS FAIR 75 47 36 SE12 29.92F  
ELY FAIR 75 37 25 S8 29.99F  
CLOQUET FAIR 64 43 45 E5 30.00S  
WHEATON NOT AVBL  
BRAINERD FAIR 73 48 41 S9 29.95F  
HIBBING FAIR 68 44 42 VRB7 29.98S  
ALEXANDRIA FAIR 81 51 35 S15G26 29.91F  
SAINT CLOUD FAIR 80 43 26 S14G22 29.94F  
MINNEAPOLIS FAIR 80 45 28 S8 29.97F  

 
 
***** WEATHER ACROSS SOUTH DAKOTA *****  
 
CITY SKY/WX TMP DP RH WIND PRES REMARKS
 
SIOUX FALLS CLOUDY 71 58 63 S12 29.91F  
BROOKINGS FAIR 72 57 59 S16G23 29.90F  
WATERTOWN PTSUNNY 74 56 53 S13 29.87F  
HURON FAIR 76 59 55 S12G20 29.84F  
SISSETON N/A 77 55 46 S14G23 29.83F  
ABERDEEN FAIR 74 60 61 S14G22 29.81F  
MITCHELL FAIR 73 60 63 SE12 29.87F  
PIERRE FAIR 69 58 67 S5 29.81S  
MOBRIDGE FAIR 70 59 68 SE3 29.78F  
RAPID CITY FAIR 71 52 50 E6 29.86S  

 
 
***** SOME WEATHER IN NEARBY STATES *****  
 
CITY SKY/WX TMP DP RH WIND PRES REMARKS
 
GLASGOW MT FAIR 70 57 63 VRB3 29.75S  
GREAT FALLS MT FAIR 65 50 58 SW15 29.87S  
CHEYENNE WY FAIR 69 44 40 SW6 30.04S  
SCOTTSBLUFF NE FAIR 73 52 47 VRB6 29.94S  
OMAHA NE PTSUNNY 78 58 49 S13 29.95F  
DES MOINES IA FAIR 79 50 36 S8 30.01S  
DAVENPORT IA FAIR 79 46 31 E5 30.05F  
CHICAGO IL FAIR 82 44 26 VRB7 30.03F  
EAU CLAIRE WI FAIR 76 46 34 S8 30.02F  
LA CROSSE WI NOT AVBL  

 
 
***** SOME NATIONAL WEATHER *****  
 
CITY SKY/WX TMP DP RH WIND PRES REMARKS
 
LA GUARDIA NY FAIR 73 47 39 NE20 30.04S  
RALEIGH NC LGT RAIN 69 65 86 SE7 29.88R  
ATLANTA GA CLOUDY 66 53 63 NW14G20 29.95S  
NEW ORLEANS LA PTSUNNY 82 66 58 VRB6 29.98F  
OKLAHOMA CITY PTSUNNY 74 65 73 S8 29.97R  
ALBUQUERQUE NM FAIR 72 24 16 NW6 30.13R  
SALT LAKE CITY PTSUNNY 70 45 40 VRB3 30.00R  
LOS ANGELES CA CLOUDY 62 56 80 SW9 29.98R  
BOISE ID FAIR 70 46 42 E5 29.94S  
SEATTLE WA FOG 50 47 89 S7 30.00S VSB 3/4  

 
 
*** WEATHER ACROSS MANITOBA...SASKATCHEWAN AND ONTARIO ***  
***ONTARIO***  
 
CITY SKY/WX TMP DP RH WIND PRES REMARKS
 
GERALDTON NOT AVBL  
THUNDER BAY MOSUNNY 66 39 37 E9 30.03F  
SIOUX LOOKOUT PTSUNNY 77 46 33 S7 29.94F  
TORONTO MOSUNNY 73 45 35 E8 30.07F  
BIG TROUT LK SUNNY 73 45 35 SW9 29.79F  
PICKLE LAKE CLOUDY 79 39 24 SW15G22 29.93F  
DRYDEN PTSUNNY 73 45 35 SE12G17 29.93F  
KENORA PTSUNNY 72 45 37 S14G20 29.87F  

 
*** MANITOBA***  
 
CITY SKY/WX TMP DP RH WIND PRES REMARKS
 
BRANDON PTSUNNY 70 59 68 N2 29.70F  
DAUPHIN MOSUNNY 75 59 57 VRB2 29.66F  
ISLAND LAKE SUNNY 79 52 38 S7 29.70S  
PILOT MOUND N/A 73 57 56 S18G24 N/A  
THE PAS SUNNY 70 63 78 S7 29.64F  
THOMPSON CLOUDY 61 61 100 S8 29.64S  
WINNIPEG PTSUNNY 81 52 36 S16G25 29.74F  
LYNN LAKE MOSUNNY 64 57 77 W7G17 29.59R  
CHURCHILL MOSUNNY 73 61 64 SW13G20 29.48F  
GILLAM PTSUNNY 68 59 73 NW9 29.61F  

 
***SASKATCHEWAN***  
 
CITY SKY/WX TMP DP RH WIND PRES REMARKS
 
ESTEVAN MOSUNNY 68 59 73 CALM 29.72F  
KINDERSLEY PTSUNNY 68 48 49 NW9 29.75R  
LLOYDMINSTER MOSUNNY 70 45 40 NE6 29.75S  
PRINCE ALBERT MOSUNNY 72 52 49 W7 29.70S  
REGINA PTSUNNY 68 55 64 CALM 29.72F  
YORKTON CLOUDY 68 57 68 SW6 29.70F  
N. BATTLEFORD CLOUDY 70 57 64 NW8 29.74S  
LA RONGE CLOUDY 70 48 46 NW12 29.66S SMOKE  
SASKATOON MOSUNNY 70 57 64 S5 29.70S  
SWIFT CURRENT SUNNY 68 54 60 W12 29.73F  

 
NOTE: THESE ARE AUTOMATED STATIONS WITH LIMITED QUALITY CONTROL  
"FAIR" INDICATES FEW OR NO CLOUDS BELOW 12,000 FEET WITH NO  
SIGNIFICANT WEATHER AND/OR S TO VISIBILITY
.  
SKY/WX - SKY CONDITION AND SIGNIFICANT WEATHER.  
TMP - AIR TEMPERATURE. DP - DEWPOINT TEMPERATURE.  
RH - RELATIVE HUMIDITY. PRES - PRESSURE.  
HX - HEAT INDEX. WCI - WIND CHILL INDEX.  
$  
 
 
CLICK HERE TO GO TO PREVIOUS BULLETINS.

The Nexlab ND Page
The Nexlab MN Page Main Text Page